Prescott, AZ

2:07 AM MST on January 23, 2018 (GMT -0700)
Love

Weather History for KPRC - September, 2013

Change the Weather History Date:

Sunday, September 1, 2013

  Actual Average Record
Temperature  
Mean Temperature 73 °F 72 °F  
Max Temperature 84 °F 85 °F 101 °F (1950)
Min Temperature 61 °F 58 °F 45 °F (1951)
Degree Days  
Heating Degree Days 0    
Month to date heating degree days 0  
Since 1 July heating degree days 0  
Cooling Degree Days 8    
Month to date cooling degree days 8  
Year to date cooling degree days 1029  
Growing Degree Days 21 (Base 50)    
Moisture  
Dew Point 61 °F    
Average Humidity 79    
Maximum Humidity 93    
Minimum Humidity 47    
Precipitation  
Precipitation 0.11 in 0.07 in 0.82 in (1991)
Month to date precipitation 0.11 0.07  
Year to date precipitation 8.33 9.73  
Sea Level Pressure  
Sea Level Pressure 29.99 in    
Wind  
Wind Speed 4 mph (SSW)    
Max Wind Speed 32 mph    
Max Gust Speed 38 mph    
Visibility 8 miles    
Events Fog , Rain , Thunderstorm    
T = Trace of Precipitation, MM = Missing Value Source: NWS Daily Summary

Daily Weather History Graph

Daily Weather History Graph

Search for Another Location

Airport or City:

Trip Planner

Search our weather history database for the weather conditions in past years. The results will help you decide how hot, cold, wet, or windy it might be!

Date:

Astronomy

Sep. 01, 2013 Rise Set
Actual Time 6:02 AM MST 6:55 PM MST
Civil Twilight 5:37 AM MST 7:21 PM MST
Nautical Twilight 5:06 AM MST 7:51 PM MST
Astronomical Twilight 4:35 AM MST 8:22 PM MST
Moon 2:33 AM MST (9/1) 4:30 PM MST (9/1)
Length of Visible Light 13h 44m
Length of Day
12h 52m
Waning Crescent, 13% of the Moon is Illuminated
Sep 1
Waning Crescent
Sep 5
New
Sep 12
First Quarter
Sep 19
Full
Sep 26
Last Quarter

Hourly Weather History & Observations

Time (MST) Temp. Heat Index Dew Point Humidity Pressure Visibility Wind Dir Wind Speed Gust Speed Precip Events Conditions
12:53 AM 64.0 °F - 60.1 °F 87% 29.94 in 10.0 mi SSW 3.5 mph - N/A   Clear
1:53 AM 63.0 °F - 60.1 °F 90% 29.93 in 10.0 mi Calm Calm - N/A   Clear
2:53 AM 63.0 °F - 59.0 °F 87% 30.14 in 10.0 mi SSW 3.5 mph - N/A   Clear
3:53 AM 62.1 °F - 59.0 °F 90% 29.94 in 10.0 mi South 3.5 mph - N/A   Clear
4:53 AM 62.1 °F - 59.0 °F 90% 29.94 in 10.0 mi SW 3.5 mph - N/A   Scattered Clouds
5:53 AM 62.1 °F - 59.0 °F 90% 29.95 in 10.0 mi Calm Calm - N/A   Scattered Clouds
6:26 AM 60.8 °F - 59.0 °F 94% 30.17 in 10.0 mi WNW 3.5 mph - N/A   Partly Cloudy
6:42 AM 62.6 °F - 60.8 °F 94% 30.18 in 0.8 mi Calm Calm - N/A   Scattered Clouds
6:50 AM 62.6 °F - 62.6 °F 100% 30.18 in 0.1 mi WNW 3.5 mph - N/A Fog Fog
6:53 AM 62.1 °F - 61.0 °F 96% 29.97 in 0.1 mi WNW 3.5 mph - N/A Fog Fog
7:53 AM 64.0 °F - 63.0 °F 96% 29.97 in 0.2 mi Calm Calm - N/A Fog Fog
7:59 AM 62.6 °F - 62.6 °F 100% 30.18 in 1.0 mi Calm Calm - N/A Fog Fog
8:04 AM 64.4 °F - 62.6 °F 94% 30.18 in 2.5 mi Calm Calm - N/A   Partly Cloudy
8:11 AM 64.4 °F - 62.6 °F 94% 30.18 in 10.0 mi Calm Calm - N/A   Clear
8:53 AM 70.0 °F - 63.0 °F 78% 29.96 in 10.0 mi Calm Calm - N/A   Partly Cloudy
9:53 AM 75.0 °F - 63.0 °F 66% 29.96 in 10.0 mi Calm Calm - N/A   Scattered Clouds
10:53 AM 79.0 °F - 62.1 °F 56% 29.94 in 10.0 mi Variable 4.6 mph - N/A   Scattered Clouds
11:53 AM 78.1 °F - 61.0 °F 56% 29.93 in 10.0 mi Calm Calm - 0.01 in Rain Light Rain
12:53 PM 80.1 °F 80.9 °F 60.1 °F 50% 29.91 in 10.0 mi Variable 6.9 mph - 0.00 in Rain Light Rain
1:53 PM 82.9 °F 83.2 °F 60.1 °F 46% 29.88 in 10.0 mi SE 8.1 mph - 0.00 in   Mostly Cloudy
2:53 PM 82.0 °F 82.4 °F 60.1 °F 47% 29.87 in 10.0 mi SE 5.8 mph - N/A   Mostly Cloudy
3:53 PM 72.0 °F - 63.0 °F 73% 29.91 in 10.0 mi NNE 20.7 mph 26.5 mph 0.03 in Rain Light Rain
4:53 PM 72.0 °F - 63.0 °F 73% 29.92 in 10.0 mi East 4.6 mph - 0.07 in   Mostly Cloudy
5:01 PM 73.4 °F - 62.6 °F 69% 30.12 in 10.0 mi Calm Calm - N/A Thunderstorm Thunderstorm
5:37 PM 75.2 °F - 60.8 °F 61% 30.11 in 10.0 mi Calm Calm - N/A   Scattered Clouds
5:53 PM 75.9 °F - 61.0 °F 60% 29.89 in 10.0 mi Calm Calm - N/A   Scattered Clouds
6:53 PM 72.0 °F - 64.0 °F 76% 29.91 in 10.0 mi ENE 3.5 mph - N/A   Partly Cloudy
7:53 PM 69.1 °F - 63.0 °F 81% 29.94 in 10.0 mi Calm Calm - N/A   Clear
8:53 PM 69.1 °F - 63.0 °F 81% 29.93 in 10.0 mi Calm Calm - N/A   Clear
9:53 PM 66.9 °F - 62.1 °F 84% 29.93 in 10.0 mi Calm Calm - N/A   Clear
10:53 PM 66.0 °F - 61.0 °F 84% 29.92 in 10.0 mi SW 4.6 mph - N/A   Clear
11:53 PM 64.9 °F - 60.1 °F 84% 29.92 in 10.0 mi South 6.9 mph - N/A   Clear